www.pogodaiklimat.ru

Погода и климат >> Архив погоды >> Киргизия >> Бишкек


АРХИВ ПОГОДЫ в Бишкеке

Время (UTC), дата Ветер
(напр.,м/с)
 
Видим.   Явления Облачность Т
(С)
Тd
(С)
f
(%)
Тe
(С)
Тes
(С)
Комфортность P
(гПа)
Po
(гПа)
Тmin
(С)
Tmax
(С)
R
(мм)
R24
(мм)
S
(см)
06 19.08 З 2 20 км 5/3 1000 м
[Cu hum Ac trans Ci fib]
+26.3 +6.1 28 +26 +35 жарко 1015.2 932.3
09 19.08 ЮЗ 2 20 км 8/3 1000 м
[Cu hum Ac trans Ci fib]
+27.7 +3.6 21 +26 +32 жарко 1014.3 931.8
12 19.08 З 2 20 км 8/3 1000 м
[Cu hum Ac trans Ci fib]
+27.8 +3.0 20 +26 +27 жарко 1014.6 932.1
15 19.08 Ю 1 н/о 4/0
[Ac trans]
+22.9 +8.1 39 +24 +24 комфорт 1017.2 933.4 +29.6
18 19.08 Ю 2 н/о 3/0
[Ac trans]
+20.6 +5.5 37 +22 +22 комфорт 1017.7 933.1 +29.6
21 19.08 Ю 1 н/о 3/0
[Ac lent]
+18.2 +6.5 46 +19 +19 по сезону 1017.3 932.1
00 20.08 штиль 0 н/о ясно +15.1 +6.2 55 +15 +15 прохладно 1018.2 932.1
03 20.08 штиль 0 20 км ясно +22.3 +7.3 38 +23 +30 комфорт 1016.3 932.3 +13.5
06 20.08 С 2 20 км 3/3 1000 м
[Cu hum]
+27.4 +4.5 23 +26 +37 жарко 1014.4 931.8
09 20.08 С 2 20 км 3/3 1000 м
[Cu hum Ac trans]
+28.7 +3.2 20 +27 +36 жарко 1013.4 931.2
12 20.08 С 1 20 км 6/3 1000 м
[Cu hum Ac trans Ci fib]
+29.3 +5.9 23 +28 +30 жарко 1013.1 931.2
15 20.08 Ю 1 н/о 3/0
[Ac trans]
+24.5 +7.4 33 +25 +25 комфорт 1014.8 931.5 +31.0
18 20.08 Ю 2 н/о ясно +22.0 +5.6 34 +22 +22 комфорт 1014.6 930.6 +31.0
21 20.08 штиль 0 н/о ясно +17.2 +7.0 51 +17 +17 прохладно 1014.8 929.5
00 21.08 СВ 1 н/о ясно +18.4 +6.1 44 +20 +20 тепло 1013.7 928.8
03 21.08 В 1 20 км ясно +25.6 +5.8 28 +25 +31 комфорт 1011.3 928.5 +15.3
06 21.08 СВ 1 20 км ясно +29.0 +4.5 21 +27 +42 жарко 1009.9 928.1
09 21.08 СЗ 2 20 км 1/1 1000 м
[Cu hum]
+30.0 +6.4 23 +29 +40 жарко 1008.7 927.4
12 21.08 СЗ 3 20 км 3/3 1000 м
[Cu hum]
+31.0 +6.5 22 +30 +31 жарко 1008.0 927.0
15 21.08 ЮЗ 1 н/о 3/0
[Ac trans]
+26.4 +9.3 34 +27 +27 жарко 1009.3 927.0 +32.2
18 21.08 ЮЗ 2 н/о 3/0
[Ci fib]
+23.6 +6.2 33 +24 +24 комфорт 1010.2 927.0 +32.2
21 21.08 Ю 1 н/о 3/0
[Ci fib]
+22.6 +4.6 31 +23 +23 комфорт 1009.0 925.6
00 22.08 ЮЗ 2 н/о ясно +20.2 +6.8 42 +22 +22 комфорт 1009.4 925.4
03 22.08 В 1 20 км 3/0
[Ac trans]
+26.8 +9.4 33 +27 +32 жарко 1007.3 925.3 +17.4
06 22.08 З 1 20 км 8/0
[Ac trans Ci fib]
+29.2 +7.7 26 +28 +40 жарко 1006.0 924.6
09 22.08 СЗ 2 20 км 5/3 1000 м
[Cu hum Ac trans Ci fib]
+32.6 +4.1 17 +30 +38 жарко 1004.3 923.9
12 22.08 З 7 20 км 8/4 600 м
[Cb cap Ac trans Ci fib]
+32.6 +7.7 21 +31 +31 жарко 1004.5 924.2
15 22.08 Ю 2 н/о 8/8 600 м
[Cb cap]
+28.8 +9.5 30 +29 +29 жарко 1006.6 925.2 +34.4
18 22.08 Ю 2 н/о {ливн. осадки} 6/0
[Ac lent]
+23.0 +9.0 41 +24 +24 комфорт 1009.2 926.1 +34.4
21 22.08 Ю 1 н/о ясно +21.7 +8.0 41 +23 +23 комфорт 1008.9 925.4
00 23.08 Ю 2 н/о 6/0
[Ac trans]
+18.9 +8.0 49 +20 +20 тепло 1009.5 925.2
03 23.08 СЗ 1 20 км 4/0
[Ac trans]
+22.5 +7.3 38 +23 +28 комфорт 1009.5 926.1 +16.9
06 23.08 З 2 20 км 6/3 1000 м
[Cu hum Ac trans]
+26.7 +6.5 28 +26 +34 жарко 1008.3 926.1
09 23.08 С 1 20 км 8/3 1000 м
[Cu hum Ac trans]
+27.9 +7.1 27 +27 +33 жарко 1007.0 925.3
12 23.08 Ю 2 10 км гроза, ливневой дождь 10/6 600 м
[Cb cap Ac trans]
+19.3 +14.5 74 +21 +22 комфорт 1013.9 929.5
15 23.08 Ю 2 н/о в посл. час ливневой дождь {гроза} 10/6 600 м
[Cb cap Ac trans]
+19.5 +13.1 66 +22 +22 комфорт 1014.6 930.2 +29.6
18 23.08 В 1 н/о {гроза, ливн. осадки} 10/8 600 м
[Cb cap Ac trans]
+19.2 +13.4 69 +22 +22 комфорт 1012.3 927.9 +29.6 5
21 23.08 штиль 0 н/о 6/0
[Ac trans]
+17.7 +12.7 73 +18 +18 по сезону 1012.3 927.5
00 24.08 З 1 н/о 8/0
[Ac trans]
+16.2 +11.8 75 +17 +17 по сезону 1014.3 928.9
03 24.08 СЗ 2 20 км 8/0
[Ci fib]
+18.2 +13.0 72 +19 +23 прохладно 1015.9 930.4 +15.6
06 24.08 З 2 20 км 3/1
[Cu hum Ci fib]
+23.6 +14.5 57 +26 +39 жарко 1014.2 931.0
09 24.08 СЗ 2 20 км 3/3 1000 м
[Cu hum]
+27.0 +10.0 34 +27 +36 жарко 1012.7 930.3
12 24.08 З 2 20 км 4 балла +28.2 +9.8 32 +28 +30 жарко 1012.3 930.3
15 24.08 ЮЗ 1 н/о 4/0
[Ac trans]
+23.6 +13.2 52 +26 +26 жарко 1014.0 930.7 +29.1
18 24.08 ЮЗ 1 н/о ясно +21.3 +11.3 53 +23 +23 комфорт 1014.8 930.7 +29.1
21 24.08 штиль 0 н/о ясно +18.4 +11.7 65 +19 +19 по сезону 1014.0 929.3
00 25.08 штиль 0 н/о ясно +14.7 +11.0 78 +14 +14 прохладно 1014.9 929.0
03 25.08 штиль 0 20 км ясно +21.8 +8.9 44 +23 +30 комфорт 1013.1 929.3 +13.1
06 25.08 СВ 2 20 км ясно +27.7 +9.0 31 +28 +42 жарко 1010.7 928.6
09 25.08 СЗ 2 20 км 1/1 1000 м
[Cu hum]
+30.9 +5.3 20 +29 +40 жарко 1008.9 927.7
12 25.08 С 1 20 км ясно +31.0 +6.2 21 +29 +32 жарко 1008.3 927.3
15 25.08 Ю 1 н/о ясно +24.2 +7.8 35 +25 +25 комфорт 1010.5 927.5 +32.7
18 25.08 штиль 0 н/о ясно +21.2 +9.3 47 +23 +23 комфорт 1010.3 926.5 +32.7
21 25.08 штиль 0 н/о ясно +17.2 +8.0 55 +17 +17 по сезону 1010.1 925.3
00 26.08 Ю 1 н/о ясно +16.6 +8.4 58 +18 +18 тепло 1010.8 925.7
03 26.08 штиль 0 20 км ясно +24.8 +8.6 36 +25 +32 комфорт 1008.6 925.9 +14.9

 

Местоположение метеостанции Бишкек (город Бишкек, Киргизия): широта 42.85 долгота 74.53 высота над уровнем моря 760 м.

В архиве по умолчанию представлена погода в Бишкеке за последнюю неделю. Архивные данные за месяц целиком и за предыдущие месяцы, начиная с января 2011 года, Вы можете получить, выбрав интересующий диапазон дат из раскрывающегося списка и нажав кнопку "Ввод!".


*Определитесь, кто Вы:
робот инопланетянин человек

Внимание! Время в таблицах - всемирное. Для получения местного времени необходимо прибавить поправку, которая равна 6 ч.

Смотрите также архив погоды в соседних городах и на ближайших метеорологических станциях:

Погода в Байтике (Чуйская область, Киргизия) (22 км)
Погода в Иссык-Ате (город Бишкек, Киргизия) (28 км)
Погода в Яны-Жере (Чуйская область, Киргизия) (46 км)
Погода в Бериктасе (Жамбылская область, Казахстан) (49 км)
Погода в Кара-Балте (Чуйская область, Киргизия) (58 км)
Погода в Тео-Ашуу (Чуйская область, Киргизия) (58 км)
Погода в Токмоке (Чуйская область, Киргизия) (61 км)
Погода в Кордае (Жамбылская область, Казахстан) (66 км)
Погода в Сусамыре (Чуйская область, Киргизия) (90 км)
Погода в Отаре (Жамбылская область, Казахстан) (96 км)

Пояснения к столбцам:

Ветер - указаны скорость ветра в м/с - средняя за 10 мин, порывы в срок и между сроками (в фигурных скобках) и направление, откуда дует ветер: С - северный, СВ - северо-восточный, В - восточный, ЮВ - юго-восточный, Ю - южный, ЮЗ - юго-западный, З - западный, СЗ - северо-западный.
Видимость - горизонтальная дальность видимости в метрах или километрах. При видимости от 1 до 10 км при отсутствии осадков обычно наблюдается дымка, при ухудшении видимости до 1 км и менее - туман. В сухую погоду видимость может ухудшаться дымом, пылью или мглою.
Явления - указаны атмосферные явления, наблюдавшиеся в срок или в последний час перед сроком; фигурными скобками обозначены явления, наблюдавшиеся между сроками (за 1-3 часа до срока); квадратными скобками обозначены град или гололедные отложения с указанием их диаметра в мм.
Облачность - указаны через наклонную черту общая и нижняя облачность в баллах и высота нижней границы облаков в метрах; квадратными скобками обозначены формы облаков: Ci - перистые, Cs - перисто-слоистые, Cc - перисто-кучевые, Ac - высококучевые, As - высокослоистые, Sc - слоисто-кучевые, Ns - слоисто-дождевые, Cu - кучевые, Cb - кучево-дождевые. Подробнее классификацию облаков см. в Атласе облаков (PDF).
T - Температура воздуха - температура, измеренная на высоте 2 м над землей.
Td - Температура точки росы - температура, при понижении до которой содержащийся в воздухе водяной пар достигнет насыщения.
f - Относительная влажность воздуха - влажноcть воздуха, измеренная на высоте 2 м над землей.
Te - Эффективная температура - температура, которую ощущает одетый по сезону человек в тени. Характеристика душности погоды. При расчете учитывается влияние влажности воздуха и скорости ветра на теплоощущения человека.
Tes - Эффективная температура на солнце - температура, которую ощущает человек, с поправкой на солнечный нагрев. Характеристика знойности погоды. Зависит от высоты солнца над горизонтом, облачности и скорости ветра. Ночью, в пасмурную погоду, а также при ветре 12 м/с и более поправка равна нулю.
P - Атмосферное давление - приведенное к уровню моря атмосферное давление.
Po - Атмосферное давление - измеренное на уровне метеостанции атмосферное давление.
Tmin - Минимальная температура - минимум температуры воздуха на высоте 2 м над землей.
Tmax - Максимальная температура - максимум температуры воздуха на высоте 2 м над землей.
R - Количество осадков - Количество выпавших осадков за период времени, мм. При наведении курсора мыши на число - период времени, за который выпало указанное количество осадков.
R24 - Количество осадков - Количество выпавших осадков за 24 часа, мм.
S - Снежный покров - Высота снежного покрова, см. При наведении курсора мыши на число - состояние снежного покрова и степень покрытия местности в баллах.